timestamp,surface_pressure_avg,surface_temp_avg,battery_voltage,lat,long
2021-04-04 00:09:01+00:00,233.2681,3.7,12.97,47.84626,-54.09684
2021-04-04 00:19:01+00:00,232.8514,3.69,12.65,47.84626,-54.09684
2021-04-04 00:29:01+00:00,230.5215,3.69,12.65,47.84626,-54.09684
2021-04-04 00:39:01+00:00,232.8515,3.56,12.65,47.84626,-54.09684
2021-04-04 00:49:01+00:00,234.4831,3.44,12.65,47.84626,-54.09684
2021-04-04 00:59:01+00:00,235.6281,3.5,12.65,47.84626,-54.09684
2021-04-04 01:09:01+00:00,240.1381,3.37,12.65,47.84626,-54.09684
2021-04-04 01:19:01+00:00,248.6697,3.48,12.65,47.84626,-54.09684
2021-04-04 01:29:01+00:00,252.5864,3.4,12.65,47.84626,-54.09684
2021-04-04 01:39:01+00:00,255.2547,3.4,12.65,47.84626,-54.09684
2021-04-04 01:49:01+00:00,260.4081,3.6,12.65,47.84626,-54.09684
2021-04-04 01:59:01+00:00,269.4864,3.5,12.65,47.84626,-54.09684
2021-04-04 02:09:01+00:00,270.3331,3.53,12.65,47.84626,-54.09684
2021-04-04 02:19:01+00:00,270.4481,3.7,12.65,47.84626,-54.09684
2021-04-04 02:29:01+00:00,279.6265,3.7,12.65,47.84626,-54.09684
2021-04-04 02:39:01+00:00,291.578,3.97,12.65,47.84626,-54.09684
2021-04-04 02:49:01+00:00,293.1913,4.1,12.65,47.84626,-54.09684
2021-04-04 02:59:01+00:00,296.473,3.7,12.65,47.84626,-54.09684
2021-04-04 03:09:01+00:00,308.1313,3.6,12.65,47.84626,-54.09684
2021-04-04 03:19:01+00:00,315.368,3.54,12.65,47.84626,-54.09684
2021-04-04 03:29:01+00:00,312.9097,3.6,12.65,47.84626,-54.09684
2021-04-04 03:39:01+00:00,316.1146,3.68,12.65,47.84626,-54.09684
2021-04-04 03:49:01+00:00,325.2413,3.7,12.65,47.84626,-54.09684
2021-04-04 03:59:01+00:00,329.4896,3.77,12.65,47.84626,-54.09684
2021-04-04 04:09:01+00:00,326.4713,3.8,12.65,47.84626,-54.09684
2021-04-04 04:19:01+00:00,326.9747,3.9,12.65,47.84626,-54.09684
2021-04-04 04:29:01+00:00,334.3413,3.9,12.65,47.84626,-54.09684
2021-04-04 04:39:01+00:00,338.2429,3.95,12.65,47.84626,-54.09684
2021-04-04 04:49:01+00:00,336.0529,3.99,12.65,47.84626,-54.09684
2021-04-04 04:59:01+00:00,339.8563,4.0,12.65,47.84626,-54.09684
2021-04-04 05:09:01+00:00,342.9329,4.0,12.65,47.84626,-54.09684
2021-04-04 05:19:01+00:00,338.3613,4.1,12.65,47.84626,-54.09684
2021-04-04 05:29:01+00:00,334.0246,4.19,12.65,47.84626,-54.09684
2021-04-04 05:39:01+00:00,331.9863,4.2,12.65,47.84626,-54.09684
2021-04-04 05:49:01+00:00,332.213,4.21,12.65,47.84626,-54.09684
2021-04-04 05:59:01+00:00,329.2513,4.26,12.65,47.84626,-54.09684
2021-04-04 06:09:01+00:00,329.3280000000001,4.29,12.65,47.84626,-54.09684
2021-04-04 06:19:01+00:00,328.1979,4.29,12.57,47.84626,-54.09684
2021-04-04 06:29:01+00:00,325.6313,4.29,12.57,47.84626,-54.09684
2021-04-04 06:39:01+00:00,320.0997,4.3,12.57,47.84626,-54.09684
2021-04-04 06:49:01+00:00,314.5463,4.3,12.57,47.84626,-54.09684
2021-04-04 06:59:01+00:00,308.4996,4.2,12.57,47.84626,-54.09684
2021-04-04 07:09:01+00:00,301.0497,4.2,12.57,47.84626,-54.09684
2021-04-04 07:19:01+00:00,294.933,4.2,12.57,47.84626,-54.09684
2021-04-04 07:29:01+00:00,287.298,4.3,12.57,47.84626,-54.09684
2021-04-04 07:39:01+00:00,276.9047,4.3,12.57,47.84626,-54.09684
2021-04-04 07:49:01+00:00,269.0347,4.31,12.57,47.84626,-54.09684
2021-04-04 07:59:01+00:00,260.0981,4.4,12.57,47.84626,-54.09684
2021-04-04 08:09:01+00:00,252.2797,4.44,12.57,47.84626,-54.09684
2021-04-04 08:19:01+00:00,247.8365,4.47,12.57,47.84626,-54.09684
2021-04-04 08:29:01+00:00,239.6798,4.93,12.57,47.84626,-54.09684
2021-04-04 08:39:01+00:00,228.3931,5.36,12.57,47.84626,-54.09684
2021-04-04 08:49:01+00:00,219.9448,5.86,12.57,47.84626,-54.09684
2021-04-04 08:59:01+00:00,214.3264,6.03,12.57,47.84626,-54.09684
2021-04-04 09:09:01+00:00,206.9665,6.09,12.57,47.84626,-54.09684
2021-04-04 09:19:01+00:00,204.4797,6.0,12.57,47.84626,-54.09684
2021-04-04 09:29:01+00:00,206.7765,5.9,12.57,47.84626,-54.09684
2021-04-04 09:39:01+00:00,205.3348,5.8,12.57,47.84626,-54.09684
2021-04-04 09:49:01+00:00,201.9081,5.7,12.57,47.84626,-54.09684
2021-04-04 09:59:01+00:00,203.5365,5.5,12.57,47.84626,-54.09684
2021-04-04 10:09:01+00:00,207.9565,5.4,12.57,47.84626,-54.09684
2021-04-04 10:19:01+00:00,207.8897,5.34,12.57,47.84626,-54.09684
2021-04-04 10:29:01+00:00,206.9864,5.4,12.57,47.84626,-54.09684
2021-04-04 10:39:01+00:00,209.1681,5.5,12.57,47.84626,-54.09684
2021-04-04 10:49:01+00:00,212.5831,5.4,12.57,47.84626,-54.09684
2021-04-04 10:59:01+00:00,213.7164,5.3,12.57,47.84626,-54.09684
2021-04-04 11:09:01+00:00,215.563,4.98,12.57,47.84626,-54.09684
2021-04-04 11:19:01+00:00,217.9348,4.9,12.57,47.84626,-54.09684
2021-04-04 11:29:01+00:00,220.2714,5.0,12.57,47.84626,-54.09684
2021-04-04 11:39:01+00:00,222.5781,5.08,12.57,47.84626,-54.09684
2021-04-04 11:49:01+00:00,223.0497,5.16,12.57,47.84626,-54.09684
2021-04-04 11:59:01+00:00,221.3415,5.33,12.57,47.84626,-54.09684
2021-04-04 12:09:01+00:00,221.2181,5.36,12.57,47.84626,-54.09684
2021-04-04 12:19:01+00:00,223.4931,5.3,12.57,47.84626,-54.09684
2021-04-04 12:29:01+00:00,224.4064,5.39,12.57,47.84626,-54.09684
2021-04-04 12:39:01+00:00,224.4681,5.4,12.57,47.84626,-54.09684
2021-04-04 12:49:01+00:00,225.7347,5.32,12.57,47.84626,-54.09684
2021-04-04 12:59:01+00:00,226.6681,5.65,12.57,47.84626,-54.09684
2021-04-04 13:09:01+00:00,226.4714,5.86,12.57,47.84626,-54.09684
2021-04-04 13:19:01+00:00,227.7865,5.7,12.89,47.84626,-54.09684
2021-04-04 13:29:01+00:00,229.5315,5.67,12.89,47.84626,-54.09684
2021-04-04 13:39:01+00:00,230.563,5.77,12.89,47.84626,-54.09684
2021-04-04 13:49:01+00:00,231.5897,5.7,12.89,47.84626,-54.09684
2021-04-04 13:59:01+00:00,231.6131,5.5,12.89,47.84626,-54.09684
2021-04-04 14:09:01+00:00,230.9815,5.51,12.89,47.84626,-54.09684
2021-04-04 14:19:01+00:00,233.9731,5.67,13.13,47.84626,-54.09684
2021-04-04 14:29:01+00:00,241.2814,5.86,13.13,47.84626,-54.09684
2021-04-04 14:39:01+00:00,248.2531,5.89,13.13,47.84626,-54.09684
2021-04-04 14:49:01+00:00,253.1931,5.39,13.13,47.84626,-54.09684
2021-04-04 14:59:01+00:00,258.6847,4.5,13.13,47.84626,-54.09684
2021-04-04 15:09:01+00:00,265.6981,4.66,13.13,47.84626,-54.09684
2021-04-04 15:19:01+00:00,272.8965,5.63,13.44,47.84626,-54.09684
2021-04-04 15:29:01+00:00,277.2114,4.4,13.44,47.84626,-54.09684
2021-04-04 15:39:01+00:00,279.2681,4.15,13.44,47.84626,-54.09684
2021-04-04 15:49:01+00:00,284.8763,4.25,13.44,47.84626,-54.09684
2021-04-04 15:59:01+00:00,292.483,4.5,13.44,47.84626,-54.09684
2021-04-04 16:09:01+00:00,292.4464,4.52,13.44,47.84626,-54.09684
2021-04-04 16:19:01+00:00,289.7897,4.33,13.37,47.84626,-54.09684
2021-04-04 16:29:01+00:00,295.4214,4.02,13.37,47.84626,-54.09684
2021-04-04 16:39:01+00:00,300.4697,4.42,13.37,47.84626,-54.09684
2021-04-04 16:49:01+00:00,299.9446,2.89,13.37,47.84626,-54.09684
2021-04-04 16:59:01+00:00,300.9313,2.44,13.37,47.84626,-54.09684
2021-04-04 17:09:01+00:00,305.0213,2.39,13.37,47.84626,-54.09684
2021-04-04 17:19:01+00:00,305.858,2.5,13.68,47.84626,-54.09684
2021-04-04 17:29:01+00:00,304.2729,2.8,13.68,47.84626,-54.09684
2021-04-04 17:39:01+00:00,307.8781,2.9,13.68,47.84626,-54.09684
2021-04-04 17:49:01+00:00,313.6764,3.07,13.68,47.84626,-54.09684
2021-04-04 17:59:01+00:00,312.2096,3.29,13.68,47.84626,-54.09684
2021-04-04 18:09:01+00:00,309.298,2.8,13.68,47.84626,-54.09684
2021-04-04 18:19:01+00:00,309.8781,3.07,13.84,47.84626,-54.09684
2021-04-04 18:29:01+00:00,312.1263,3.89,13.84,47.84626,-54.09684
2021-04-04 18:39:01+00:00,310.8947,4.01,13.84,47.84626,-54.09684
2021-04-04 18:49:01+00:00,308.8997,4.02,13.84,47.84626,-54.09684
2021-04-04 18:59:01+00:00,307.2764,4.12,13.84,47.84626,-54.09684
2021-04-04 19:09:01+00:00,303.4097,4.2,13.84,47.84626,-54.09684
2021-04-04 19:19:01+00:00,297.2464,3.9,13.84,47.84626,-54.09684
2021-04-04 19:29:01+00:00,288.7647,3.92,13.84,47.84626,-54.09684
2021-04-04 19:39:01+00:00,284.4597,4.3,13.84,47.84626,-54.09684
2021-04-04 19:49:01+00:00,278.6047,4.48,13.84,47.84626,-54.09684
2021-04-04 19:59:01+00:00,271.088,4.72,13.84,47.84626,-54.09684
2021-04-04 20:09:01+00:00,263.3497,4.48,13.84,47.84626,-54.09684
2021-04-04 20:19:01+00:00,257.5814,4.5,13.68,47.84626,-54.09684
2021-04-04 20:29:01+00:00,250.843,4.57,13.68,47.84626,-54.09684
2021-04-04 20:39:01+00:00,243.0298,4.62,13.68,47.84626,-54.09684
2021-04-04 20:49:01+00:00,237.7748,4.8,13.68,47.84626,-54.09684
2021-04-04 20:59:01+00:00,235.7431,4.89,13.68,47.84626,-54.09684
2021-04-04 21:09:01+00:00,232.0297,5.18,13.68,47.84626,-54.09684
2021-04-04 21:19:01+00:00,226.5214,5.39,13.44,47.84626,-54.09684
2021-04-04 21:29:01+00:00,223.5698,5.4,13.44,47.84626,-54.09684
2021-04-04 21:39:01+00:00,223.6748,4.7,13.44,47.84626,-54.09684
2021-04-04 21:49:01+00:00,221.3898,4.79,13.44,47.84626,-54.09684
2021-04-04 21:59:01+00:00,217.8365,4.6,13.44,47.84626,-54.09684
2021-04-04 22:09:01+00:00,219.0714,4.4,13.44,47.84626,-54.09684
2021-04-04 22:19:01+00:00,221.4431,4.3,13.05,47.84626,-54.09684
2021-04-04 22:29:01+00:00,219.1747,4.3,13.05,47.84626,-54.09684
2021-04-04 22:39:01+00:00,217.6414,4.2,13.05,47.84626,-54.09684
2021-04-04 22:49:01+00:00,219.8115,4.0,13.05,47.84626,-54.09684
2021-04-04 22:59:01+00:00,221.3531,3.99,13.05,47.84626,-54.09684
2021-04-04 23:09:01+00:00,221.3531,4.1,13.05,47.84626,-54.09684
2021-04-04 23:19:01+00:00,222.9398,3.99,12.73,47.84626,-54.09684
2021-04-04 23:29:01+00:00,224.4498,3.88,12.73,47.84626,-54.09684
2021-04-04 23:39:01+00:00,223.6397,4.1,12.73,47.84626,-54.09684
2021-04-04 23:49:01+00:00,222.2747,4.23,12.73,47.84626,-54.09684
2021-04-04 23:59:01+00:00,222.8398,4.28,12.73,47.84626,-54.09684
